Location: Unspecified
(0.0000°N, 0.0000°E)
Time: 17:39:02
(UTC+00:00)

SRMSAT - Pass Details

Date: 01 June 2020
Orbit: 848 x 866 km, 20.0° (Epoch: 06 July)

Event Time Altitude Azimuth Distance (km) Brightness Sun altitude
Rises 21:03:38 0° 315° (NW) 3,389 ? -42.1°
Reaches altitude 10° 21:07:11 10° 336° (NNW) 2,457 ? -42.9°
Enters shadow 21:07:49 12° 341° (NNW) 2,332 ? -43.0°
